Location: Salillas
(41.9950°N, 0.2228°W)
Time: 19:57:25
(UTC+00:00)

IRIDIUM 103 - Pass Details

Date: 29 March 2020
Orbit: 776 x 779 km, 86.4° (Epoch: 31 May)

Event Time Altitude Azimuth Distance (km) Brightness Sun altitude
Rises 20:04:29 0° 359° (N) 3,274 7.9 -18.9°
Reaches altitude 10° 20:06:52 10° 2° (N) 2,342 7.1 -19.3°
Maximum altitude 20:12:06 68° 86° (E) 840 4.2 -20.2°
Enters shadow 20:14:32 32° 160° (SSE) 1,321 5.1 -20.6°
